Meteo Giornale » Osservazioni meteo Francia » Chambery-Aix-Les-Bains

ore: 05:00 - Osservazioni Meteo Chambery-Aix-Les-Bains
Lat. 45° 39' N Lon. 5° 53' E Alt. 235 metri s.l.m.

sereno Europe/Paris

13 °C

Sereno

Temp. 24 Ore

13 °C

22 °C

Nord

16.7 Km/h

Dew point 6 °C

Umidità 62 %

Visibilità  10 Km

Il sole sorge alle ore 07:19

Il sole tramonta alle ore 19:39

Data e Ora Cielo e Fenomeni T °C DP °C Um. % Pres. hPa Vis. km Vento km/h
Oggi h: 05:00 sereno Sereno 13 6 62 1023 10 N 16.7
Oggi h: 04:30 sereno Sereno 13 6 62 1024 10 N/NO 11.1
Oggi h: 04:00 sereno Sereno 14 6 58 1023 10 N 16.7
Oggi h: 03:30 sereno Sereno 14 5 54 1023 10 N 24
Oggi h: 03:00 sereno Sereno 14 6 58 1023 10 N 22.2
Oggi h: 02:30 sereno Sereno 15 6 54 1023 10 N 24
Oggi h: 02:00 sereno Sereno 15 6 54 1023 10 N 20.3
Oggi h: 00:30 sereno Sereno 16 6 51 1023 10 N/NE 22.2
Oggi h: 00:00 sereno Sereno 16 6 51 1023 10 N 20.3
Ieri h: 23:30 sereno Sereno 16 6 51 1023 10 N 22.2
Ieri h: 23:00 sereno Sereno 17 6 48 1022 10 N 20.3
Ieri h: 22:30 sereno Sereno 17 6 48 1022 10 N 22.2
Ieri h: 22:00 sereno Sereno 18 6 45 1022 10 N 22.2
Ieri h: 21:30 sereno Sereno 18 6 45 1022 10 N/NO 22.2
Ieri h: 21:00 sereno Sereno 18 7 48 1021 10 N/NO 18.5
Ieri h: 20:30 sereno Sereno 18 7 48 1021 10 N 18.5
Ieri h: 20:00 sereno Sereno 19 8 48 1020 10 N 22.2
Ieri h: 19:30 sereno Sereno 19 8 48 1020 10 N 20.3
Ieri h: 19:00 sereno Sereno 20 9 49 1020 10 N 20.3
Ieri h: 18:00 sereno Sereno 21 8 43 1020 10 N 22.2
Ieri h: 17:30 sereno Sereno 22 8 40 1020 10 N 25.9
Ieri h: 17:00 sereno Sereno 22 9 43 1020 10 N/NO 20.3
Ieri h: 16:30 sereno Sereno 22 9 43 1020 10 N 24
Ieri h: 16:00 sereno Sereno 22 9 43 1020 10 N 20.3
Ieri h: 15:30 sereno Sereno 22 9 43 1020 10 N 20.3
Ieri h: 15:00 sereno Sereno 22 9 43 1020 10 N 24
Ieri h: 14:30 poco_nuvoloso Poco Nuvoloso 21 9 46 1020 10 N 24
Ieri h: 14:00 molto_nuvoloso Molto Nuvoloso 21 9 46 1021 10 N 22.2
Ieri h: 13:30 coperto Coperto 20 9 49 1021 10 N 20.3
Ieri h: 13:00 coperto Coperto 20 8 45 1021 10 N 22.2
Ieri h: 12:30 molto_nuvoloso Molto Nuvoloso 20 8 45 1021 10 N/NE 24
Ieri h: 12:00 nuvoloso Nuvoloso 19 8 48 1021 10 N 25.9
Ieri h: 11:30 molto_nuvoloso Molto Nuvoloso 18 8 51 1021 10 N 24
Ieri h: 11:00 molto_nuvoloso Molto Nuvoloso 18 7 48 1021 10 N 27.8
Ieri h: 10:30 molto_nuvoloso Molto Nuvoloso 18 8 51 1021 10 N 25.9
Ieri h: 10:00 coperto Coperto 17 7 51 1021 10 N 27.8
Ieri h: 09:30 coperto Coperto 16 8 58 1021 10 N 27.8
Ieri h: 09:00 molto_nuvoloso Molto Nuvoloso 16 7 55 1020 10 N 24
Ieri h: 08:30 molto_nuvoloso Molto Nuvoloso 15 7 58 1020 10 N 25.9
Ieri h: 08:00 poco_nuvoloso Poco Nuvoloso 15 7 58 1020 10 N 22.2
Ieri h: 07:30 poco_nuvoloso Poco Nuvoloso 14 7 62 1020 10 N 22.2
Ieri h: 07:00 sereno Sereno 14 7 62 1020 10 N/NE 22.2
Ieri h: 06:00 poco_nuvoloso Poco Nuvoloso 15 8 62 1020 10 N 24